This demonstration page uses our WeatherBlox Daily Observations layout. Learn more.

Left ArrowRight Arrow

Hourly Observations for February 22, 2016

Temp ( °F °C ) Dew Point ( °F °C ) Humidity (%) Winds ( mph kmh ) Pressure ( in mb ) Visibility ( mi km ) Precip ( " mm )
12:46 am 00:46 Cloudy with Mist and Fog 59 15 56 13.3 90 90 WNW 9 15 29.91 1013 6 10 0.00 0.00
12:59 am 00:59 Cloudy with Mist and Fog 58 14.4 55 12.8 90 90 NW 8 13 29.90 1013 5 8 0.00 0.00
1:27 am 01:27 Cloudy with Mist and Fog 57 13.9 54 12.2 90 90 N 10 17 29.91 1013 3 5 0.00 0.00
1:47 am 01:47 Cloudy with Mist and Fog 56 13.3 53 11.7 90 90 N 9 15 29.91 1013 3 5 0.00 0.00
1:59 am 01:59 Cloudy with Mist and Fog 54 12.2 52 11.1 93 93 NNE 16 26 29.93 1013 3 5 0.00 0.00
2:23 am 02:23 Cloudy with Mist and Fog 49 9.4 47 8.3 93 93 NNE 15 24 29.94 1014 3 5 0.00 0.00
2:59 am 02:59 Mostly Cloudy with Mist and Fog 51 10.6 46 7.8 83 83 N 12 19 29.93 1014 4 6 0.00 0.00
3:33 am 03:33 Cloudy with Mist and Fog 50 10 47 8.3 89 89 N 12 19 29.94 1014 3 5 0.00 0.00
3:59 am 03:59 Cloudy with Mist and Fog 49 9.4 46 7.8 90 90 NNE 12 19 29.96 1014 3 5 0.00 0.00
4:27 am 04:27 Cloudy with Mist and Fog 48 8.9 44 6.7 86 86 NNE 13 20 29.97 1015 4 6 0.00 0.00
4:50 am 04:50 Cloudy with Mist and Fog 47 8.3 43 6.1 86 86 NE 9 15 29.97 1015 4 6 0.00 0.00
4:59 am 04:59 Cloudy with Mist and Fog 46 7.8 43 6.1 89 89 NE 7 11 29.98 1015 3 5 0.00 0.00
5:34 am 05:34 Mostly Cloudy with Mist and Fog 46 7.8 42 5.6 86 86 NE 5 7 30.00 1016 4 6 0.00 0.00
5:59 am 05:59 Mostly Cloudy with Mist and Fog 46 7.8 42 5.6 86 86 N 7 11 30.03 1017 4 6 0.00 0.00
6:59 am 06:59 Cloudy with Mist and Fog 45 7.2 40 4.4 83 83 NNE 10 17 30.06 1018 4 6 0.00 0.00
7:59 am 07:59 Cloudy with Haze 46 7.8 41 5 83 83 NNE 12 19 30.09 1019 5 8 0.00 0.00
8:59 am 08:59 Cloudy with Haze 46 7.8 40 4.4 79 79 NNE 10 17 30.13 1020 5 8 0.00 0.00
9:59 am 09:59 Cloudy 48 8.9 41 5 77 77 NE 12 19 30.14 1021 7 11 0.00 0.00
10:59 am 10:59 Cloudy 49 9.4 41 5 74 74 NE 13 20 30.14 1021 10 16 0.00 0.00
11:59 am 11:59 Cloudy 50 10 41 5 71 71 ENE 13 20 30.14 1021 10 16 0.00 0.00
12:59 pm 12:59 Mostly Cloudy 50 10 40 4.4 68 68 ENE 15 24 30.13 1020 10 16 0.00 0.00
1:59 pm 13:59 Mostly Cloudy 49 9.4 39 3.9 69 69 ENE 13 20 30.13 1020 10 16 0.00 0.00
2:59 pm 14:59 Mostly Cloudy 48 8.9 39 3.9 71 71 E 13 20 30.13 1020 9 14 0.00 0.00
3:59 pm 15:59 Mostly Cloudy 47 8.3 39 3.9 74 74 ENE 10 17 30.14 1021 10 16 0.00 0.00
4:59 pm 16:59 Cloudy 46 7.8 39 3.9 77 77 ENE 9 15 30.15 1021 10 16 0.00 0.00
5:59 pm 17:59 Cloudy 45 7.2 39 3.9 80 80 ENE 8 13 30.16 1021 9 14 0.00 0.00
6:59 pm 18:59 Cloudy 45 7.2 39 3.9 80 80 ENE 9 15 30.17 1022 10 16 0.00 0.00
7:59 pm 19:59 Cloudy 45 7.2 39 3.9 80 80 ENE 7 11 30.17 1022 10 16 0.00 0.00
8:59 pm 20:59 Cloudy 45 7.2 39 3.9 80 80 ENE 8 13 30.17 1022 10 16 0.00 0.00
9:59 pm 21:59 Cloudy 45 7.2 39 3.9 80 80 ENE 7 11 30.17 1022 10 16 0.00 0.00
10:59 pm 22:59 Cloudy with Light Rain 45 7.2 40 4.4 83 83 ENE 10 17 30.15 1021 9 14 0.01 0.25
11:59 pm 23:59 Cloudy with Light Rain 45 7.2 41 5 86 86 NE 9 15 30.13 1020 8 13 0.02 0.51

Powered by AerisWeather